DW4394 Weather Reports


Display with metric or nautical units.
time (UTC)temp
F
wind
direction
speed
MPH
gust
MPH
rain 1hr
in
rain 24hr
in
rain mn
in
humidity
%
barometer
mb
20260831093052 83 144 4.0 7.0 0.00 0.00 0.00 27 1004.3
20260831091551 83 147 4.0 7.0 0.00 0.00 0.00 26 1004.3
20260831090052 84 152 5.0 10.0 0.00 0.00 0.00 25 1004.3
20260831084559 84 145 4.0 8.0 0.00 0.00 0.00 25 1004.3
20260831083052 84 137 4.0 10.0 0.00 0.00 0.00 24 1004.4
20260831081553 85 137 5.0 9.0 0.00 0.00 0.00 24 1004.3
20260831080101 85 182 6.0 9.0 0.00 0.00 0.00 24 1004.3
20260831074555 86 134 5.0 8.0 0.00 0.00 0.00 29 1004.2
20260831073055 86 177 5.0 7.0 0.00 0.00 0.00 33 1004.2
20260831071554 86 144 3.0 7.0 0.00 0.00 0.00 32 1004.2
20260831070107 86 140 2.0 7.0 0.00 0.00 0.00 32 1004.0
20260831064555 86 138 4.0 8.0 0.00 0.00 0.00 29 1003.8
20260831063055 85 147 3.0 6.0 0.00 0.00 0.00 26 1003.7
20260831061555 86 148 1.0 3.0 0.00 0.00 0.00 26 1003.9
20260831060054 86 146 3.0 7.0 0.00 0.00 0.00 25 1004.0
20260831054557 87 132 1.0 4.0 0.00 0.00 0.00 21 1004.1
20260831053055 87 156 2.0 8.0 0.00 0.00 0.00 21 1004.1
20260831051556 87 139 4.0 7.0 0.00 0.00 0.00 20 1004.1
20260831050057 87 134 3.0 7.0 0.00 0.00 0.00 20 1004.1
20260831044559 88 155 4.0 7.0 0.00 0.00 0.00 20 1004.2
20260831043054 88 156 3.0 5.0 0.00 0.00 0.00 20 1004.0
20260831041602 89 148 2.0 4.0 0.00 0.00 0.00 19 1004.0
20260831040056 89 155 2.0 7.0 0.00 0.00 0.00 19 1003.9
20260831034554 89 157 3.0 6.0 0.00 0.00 0.00 19 1003.8
20260831033100 90 213 1.0 4.0 0.00 0.00 0.00 19 1003.5
20260831031554 91 224 2.0 5.0 0.00 0.00 0.00 19 1003.2
20260831024556 92 209 1.0 7.0 0.00 0.00 0.00 18 1002.9
20260831023055 92 209 2.0 6.0 0.00 0.00 0.00 17 1002.8
20260831021554 93 197 4.0 11.0 0.00 0.00 0.00 17 1002.7
20260831014607 95 221 4.0 10.0 0.00 0.00 0.00 15 1002.5
20260831013054 95 194 6.0 12.0 0.00 0.00 0.00 14 1002.5
20260831011610 96 185 4.0 13.0 0.00 0.00 0.00 15 1002.5
20260831010053 97 266 2.0 12.0 0.00 0.00 0.00 16 1002.5
20260831004555 98 212 3.0 8.0 0.00 0.00 0.00 16 1002.6
20260831003056 98 178 5.0 12.0 0.00 0.00 0.00 16 1002.7
20260831001603 99 223 4.0 12.0 0.00 0.00 0.00 16 1002.8
20260831000054 100 236 3.0 10.0 0.00 0.00 0.00 16 1002.9
20260830234554 100 212 5.0 11.0 0.00 0.00 0.00 15 1003.1
20260830233103 101 259 7.0 18.0 0.00 0.00 0.00 14 1003.2
20260830231600 101 258 7.0 18.0 0.00 0.00 0.00 14 1003.2
20260830230054 100 219 6.0 12.0 0.00 0.00 0.00 15 1003.3
20260830224611 100 215 7.0 15.0 0.00 0.00 0.00 15 1003.4
20260830223056 100 211 8.0 13.0 0.00 0.00 0.00 15 1003.6
20260830221602 101 221 6.0 14.0 0.00 0.00 0.00 15 1003.7
20260830220101 101 203 6.0 15.0 0.00 0.00 0.00 14 1003.8
20260830214558 101 188 6.0 15.0 0.00 0.00 0.00 14 1004.0
20260830213053 101 194 7.0 15.0 0.00 0.00 0.00 15 1004.3
20260830211557 101 186 5.0 13.0 0.00 0.00 0.00 15 1004.5
20260830210100 101 219 4.0 14.0 0.00 0.00 0.00 15 1004.8
20260830204554 101 180 6.0 15.0 0.00 0.00 0.00 15 1004.9
20260830203053 100 159 7.0 11.0 0.00 0.00 0.00 15 1004.9
20260830201554 100 188 7.0 16.0 0.00 0.00 0.00 15 1005.0
20260830200054 99 161 5.0 15.0 0.00 0.00 0.00 15 1005.2
20260830194555 99 227 6.0 13.0 0.00 0.00 0.00 15 1005.3
20260830193054 98 163 5.0 14.0 0.00 0.00 0.00 15 1005.4
20260830191555 97 228 6.0 15.0 0.00 0.00 0.00 16 1005.7
20260830190054 94 200 6.0 14.0 0.00 0.00 0.00 17 1005.9
20260830184554 94 192 5.0 11.0 0.00 0.00 0.00 17 1006.0
20260830183053 93 234 3.0 10.0 0.00 0.00 0.00 18 1006.1
20260830181554 93 157 7.0 12.0 0.00 0.00 0.00 18 1006.1
20260830180053 92 202 7.0 13.0 0.00 0.00 0.00 18 1006.1
20260830174553 93 143 7.0 17.0 0.00 0.00 0.00 17 1006.1
20260830173054 94 194 7.0 16.0 0.00 0.00 0.00 17 1006.1
20260830171605 93 163 7.0 16.0 0.00 0.00 0.00 18 1006.0
20260830170058 92 161 8.0 19.0 0.00 0.00 0.00 18 1005.9
20260830164603 91 233 9.0 14.0 0.00 0.00 0.00 19 1005.8
20260830163053 89 151 9.0 14.0 0.00 0.00 0.00 20 1005.8
20260830161600 88 164 8.0 12.0 0.00 0.00 0.00 21 1005.8
20260830160054 87 154 7.0 12.0 0.00 0.00 0.00 22 1005.7
20260830154554 86 178 4.0 10.0 0.00 0.00 0.00 23 1005.6
20260830153054 86 182 7.0 15.0 0.00 0.00 0.00 23 1005.6
20260830151557 86 188 7.0 16.0 0.00 0.00 0.00 23 1005.6
20260830150056 86 221 4.0 14.0 0.00 0.00 0.00 24 1005.6
20260830144553 85 200 5.0 11.0 0.00 0.00 0.00 24 1005.5
20260830143108 84 149 7.0 14.0 0.00 0.00 0.00 25 1005.4
20260830141553 84 200 8.0 17.0 0.00 0.00 0.00 26 1005.2
20260830140052 84 173 8.0 14.0 0.00 0.00 0.00 26 1005.0
20260830134553 84 223 5.0 16.0 0.00 0.00 0.00 27 1004.8
20260830133055 84 144 5.0 10.0 0.00 0.00 0.00 28 1004.8
20260830131554 84 175 8.0 15.0 0.00 0.00 0.00 28 1004.5
20260830130103 84 163 8.0 13.0 0.00 0.00 0.00 28 1004.2
20260830124553 84 161 7.0 13.0 0.00 0.00 0.00 28 1004.0
20260830123109 85 131 7.0 16.0 0.00 0.00 0.00 29 1003.9
20260830121555 85 157 5.0 12.0 0.00 0.00 0.00 29 1003.7
20260830120055 85 136 4.0 8.0 0.00 0.00 0.00 29 1003.5
20260830114605 85 155 5.0 10.0 0.00 0.00 0.00 29 1003.2
20260830113052 85 156 5.0 12.0 0.00 0.00 0.00 29 1002.9
20260830111552 85 198 6.0 12.0 0.00 0.00 0.00 28 1002.6
20260830110052 85 225 6.0 14.0 0.00 0.00 0.00 28 1002.8
20260830104555 85 213 5.0 15.0 0.00 0.00 0.00 27 1002.7
20260830103053 85 136 5.0 9.0 0.00 0.00 0.00 29 1002.9
20260830101557 85 138 5.0 9.0 0.00 0.00 0.00 29 1002.8
20260830100054 86 141 3.0 9.0 0.00 0.00 0.00 29 1002.7
20260830094552 86 227 5.0 14.0 0.00 0.00 0.00 29 1002.5